| time (UTC) | temp F | wind direction | speed MPH | gust MPH | rain 1hr in | rain 24hr in | rain mn in | humidity % | barometer mb |
| 20260504130325 | 60 | 219 | 5.0 | 10.0 | 0.00 | 0.00 | 0.00 | 54 | 1014.8 |
| 20260504110333 | 50 | 247 | 3.0 | 12.0 | 0.00 | 0.00 | 0.00 | 70 | 1015.7 |
| 20260504100318 | 49 | 241 | 5.0 | 15.0 | 0.00 | 0.00 | 0.00 | 66 | 1015.4 |
| 20260504081813 | 49 | 215 | 4.0 | 9.0 | 0.00 | 0.00 | 0.00 | 58 | 1015.2 |
| 20260504081348 | 48 | 250 | 4.0 | 9.0 | 0.00 | 0.00 | 0.00 | 58 | 1015.2 |
| 20260504080823 | 48 | 231 | 4.0 | 8.0 | 0.00 | 0.00 | 0.00 | 58 | 1015.1 |
| 20260504080334 | 48 | 257 | 3.0 | 8.0 | 0.00 | 0.00 | 0.00 | 58 | 1015.1 |
| 20260504070317 | 48 | 250 | 5.0 | 8.0 | 0.00 | 0.00 | 0.00 | 57 | 1014.8 |
| 20260504050317 | 50 | 265 | 3.0 | 7.0 | 0.00 | 0.00 | 0.00 | 51 | 1014.6 |
| 20260504045829 | 50 | 261 | 3.0 | 6.0 | 0.00 | 0.00 | 0.00 | 50 | 1014.5 |
| 20260504045321 | 50 | 240 | 4.0 | 8.0 | 0.00 | 0.00 | 0.00 | 50 | 1014.4 |
| 20260504044816 | 50 | 245 | 4.0 | 9.0 | 0.00 | 0.00 | 0.00 | 50 | 1014.4 |
| 20260504044326 | 50 | 232 | 5.0 | 9.0 | 0.00 | 0.00 | 0.00 | 50 | 1014.4 |
| 20260504043821 | 50 | 254 | 4.0 | 9.0 | 0.00 | 0.00 | 0.00 | 50 | 1014.3 |
| 20260504043316 | 50 | 212 | 4.0 | 8.0 | 0.00 | 0.00 | 0.00 | 50 | 1014.3 |
| 20260504042848 | 50 | 211 | 3.0 | 7.0 | 0.00 | 0.00 | 0.00 | 50 | 1014.3 |
| 20260504042321 | 50 | 241 | 3.0 | 6.0 | 0.00 | 0.00 | 0.00 | 49 | 1014.2 |
| 20260504041816 | 50 | 294 | 4.0 | 9.0 | 0.00 | 0.00 | 0.00 | 49 | 1014.1 |
| 20260504041327 | 50 | 242 | 3.0 | 9.0 | 0.00 | 0.00 | 0.00 | 49 | 1014.2 |
| 20260504040842 | 50 | 269 | 4.0 | 10.0 | 0.00 | 0.00 | 0.00 | 49 | 1014.2 |
| 20260504040312 | 51 | 254 | 5.0 | 7.0 | 0.00 | 0.00 | 0.00 | 49 | 1014.1 |
| 20260504035826 | 51 | 226 | 3.0 | 7.0 | 0.00 | 0.00 | 0.00 | 49 | 1014.0 |
| 20260504035320 | 51 | 255 | 3.0 | 7.0 | 0.00 | 0.00 | 0.00 | 49 | 1014.1 |
| 20260504034815 | 51 | 254 | 3.0 | 7.0 | 0.00 | 0.00 | 0.00 | 49 | 1014.0 |
| 20260504034326 | 51 | 254 | 3.0 | 5.0 | 0.00 | 0.00 | 0.00 | 48 | 1013.9 |
| 20260504033822 | 51 | 259 | 3.0 | 6.0 | 0.00 | 0.00 | 0.00 | 48 | 1013.9 |
| 20260504033334 | 51 | 223 | 3.0 | 7.0 | 0.00 | 0.00 | 0.00 | 48 | 1013.8 |
| 20260504032826 | 51 | 239 | 3.0 | 8.0 | 0.00 | 0.00 | 0.00 | 48 | 1013.9 |
| 20260504032337 | 51 | 230 | 4.0 | 8.0 | 0.00 | 0.00 | 0.00 | 48 | 1013.9 |
| 20260504031831 | 51 | 232 | 2.0 | 7.0 | 0.00 | 0.00 | 0.00 | 47 | 1013.9 |
| 20260504031322 | 51 | 242 | 3.0 | 8.0 | 0.00 | 0.00 | 0.00 | 47 | 1013.8 |
| 20260504030854 | 51 | 249 | 4.0 | 8.0 | 0.00 | 0.00 | 0.00 | 47 | 1013.9 |
| 20260504030324 | 51 | 245 | 2.0 | 7.0 | 0.00 | 0.00 | 0.00 | 47 | 1013.9 |
| 20260504025816 | 52 | 213 | 2.0 | 5.0 | 0.00 | 0.00 | 0.00 | 47 | 1013.8 |
| 20260504025326 | 52 | 234 | 2.0 | 5.0 | 0.00 | 0.00 | 0.00 | 47 | 1013.8 |
| 20260504024822 | 52 | 221 | 2.0 | 5.0 | 0.00 | 0.00 | 0.00 | 47 | 1013.8 |
| 20260504024333 | 52 | 264 | 3.0 | 5.0 | 0.00 | 0.00 | 0.00 | 47 | 1013.7 |
| 20260504023825 | 52 | 251 | 2.0 | 5.0 | 0.00 | 0.00 | 0.00 | 46 | 1013.8 |
| 20260504023317 | 52 | 265 | 2.0 | 5.0 | 0.00 | 0.00 | 0.00 | 46 | 1013.8 |
| 20260504022828 | 52 | 252 | 2.0 | 4.0 | 0.00 | 0.00 | 0.00 | 46 | 1013.8 |
| 20260504022319 | 52 | 287 | 2.0 | 5.0 | 0.00 | 0.00 | 0.00 | 46 | 1013.8 |
| 20260504021833 | 52 | 234 | 2.0 | 7.0 | 0.00 | 0.00 | 0.00 | 46 | 1013.7 |
| 20260504021324 | 52 | 265 | 3.0 | 6.0 | 0.00 | 0.00 | 0.00 | 46 | 1013.8 |
| 20260504020823 | 52 | 254 | 3.0 | 5.0 | 0.00 | 0.00 | 0.00 | 46 | 1013.8 |
| 20260504020314 | 52 | 229 | 2.0 | 6.0 | 0.00 | 0.00 | 0.00 | 45 | 1013.8 |
| 20260504015829 | 53 | 257 | 3.0 | 6.0 | 0.00 | 0.00 | 0.00 | 45 | 1013.8 |
| 20260504015320 | 53 | 246 | 2.0 | 5.0 | 0.00 | 0.00 | 0.00 | 45 | 1013.8 |
| 20260504014851 | 53 | 232 | 2.0 | 3.0 | 0.00 | 0.00 | 0.00 | 45 | 1013.8 |
| 20260504014325 | 53 | 234 | 2.0 | 4.0 | 0.00 | 0.00 | 0.00 | 45 | 1013.7 |
| 20260504013820 | 53 | 204 | 2.0 | 4.0 | 0.00 | 0.00 | 0.00 | 44 | 1013.6 |
| 20260504013331 | 53 | 227 | 2.0 | 3.0 | 0.00 | 0.00 | 0.00 | 43 | 1013.6 |
| 20260504012826 | 54 | 226 | 1.0 | 3.0 | 0.00 | 0.00 | 0.00 | 43 | 1013.5 |
| 20260504012317 | 54 | 234 | 1.0 | 3.0 | 0.00 | 0.00 | 0.00 | 43 | 1013.4 |
| 20260504011848 | 54 | 246 | 1.0 | 4.0 | 0.00 | 0.00 | 0.00 | 43 | 1013.4 |
| 20260504011318 | 54 | 232 | 1.0 | 4.0 | 0.00 | 0.00 | 0.00 | 42 | 1013.3 |
| 20260504010833 | 55 | 180 | 1.0 | 3.0 | 0.00 | 0.00 | 0.00 | 42 | 1013.2 |
| 20260504010324 | 55 | 222 | 1.0 | 3.0 | 0.00 | 0.00 | 0.00 | 41 | 1013.1 |
| 20260504005819 | 55 | 225 | 1.0 | 3.0 | 0.00 | 0.00 | 0.00 | 41 | 1013.1 |
| 20260504005350 | 55 | 229 | 1.0 | 2.0 | 0.00 | 0.00 | 0.00 | 40 | 1013.0 |
| 20260504004821 | 55 | 229 | 1.0 | 2.0 | 0.00 | 0.00 | 0.00 | 39 | 1013.0 |
| 20260504004332 | 56 | 229 | 1.0 | 2.0 | 0.00 | 0.00 | 0.00 | 39 | 1012.9 |
| 20260504003828 | 56 | 229 | 1.0 | 2.0 | 0.00 | 0.00 | 0.00 | 39 | 1012.8 |
| 20260504003339 | 56 | 229 | 1.0 | 2.0 | 0.00 | 0.00 | 0.00 | 38 | 1012.8 |
| 20260504002829 | 56 | 234 | 1.0 | 3.0 | 0.00 | 0.00 | 0.00 | 37 | 1012.7 |
| 20260504002321 | 56 | 236 | 1.0 | 4.0 | 0.00 | 0.00 | 0.00 | 36 | 1012.7 |
| 20260504001832 | 57 | 215 | 2.0 | 6.0 | 0.00 | 0.00 | 0.00 | 36 | 1012.6 |
| 20260504001345 | 57 | 232 | 1.0 | 6.0 | 0.00 | 0.00 | 0.00 | 35 | 1012.5 |
| 20260504000815 | 57 | 240 | 1.0 | 5.0 | 0.00 | 0.00 | 0.00 | 34 | 1012.5 |
| 20260504000346 | 58 | 266 | 2.0 | 5.0 | 0.00 | 0.00 | 0.00 | 34 | 1012.4 |
| 20260503235816 | 58 | 240 | 3.0 | 7.0 | 0.00 | 0.00 | 0.00 | 34 | 1012.3 |
| 20260503235348 | 58 | 276 | 3.0 | 6.0 | 0.00 | 0.00 | 0.00 | 33 | 1012.2 |
| 20260503234818 | 58 | 211 | 3.0 | 8.0 | 0.00 | 0.00 | 0.00 | 33 | 1012.2 |
| 20260503234314 | 59 | 239 | 4.0 | 8.0 | 0.00 | 0.00 | 0.00 | 32 | 1012.1 |
| 20260503233828 | 59 | 274 | 4.0 | 9.0 | 0.00 | 0.00 | 0.00 | 32 | 1012.1 |
| 20260503233320 | 59 | 253 | 7.0 | 11.0 | 0.00 | 0.00 | 0.00 | 31 | 1012.0 |
| 20260503232815 | 59 | 261 | 6.0 | 10.0 | 0.00 | 0.00 | 0.00 | 31 | 1012.0 |
| 20260503232326 | 59 | 281 | 5.0 | 8.0 | 0.00 | 0.00 | 0.00 | 31 | 1012.1 |
| 20260503231817 | 60 | 272 | 3.0 | 8.0 | 0.00 | 0.00 | 0.00 | 31 | 1012.2 |
| 20260503231328 | 60 | 261 | 3.0 | 8.0 | 0.00 | 0.00 | 0.00 | 30 | 1012.1 |
| 20260503230840 | 60 | 302 | 4.0 | 8.0 | 0.00 | 0.00 | 0.00 | 31 | 1012.1 |
| 20260503230315 | 60 | 309 | 4.0 | 10.0 | 0.00 | 0.00 | 0.00 | 30 | 1012.0 |
| 20260503225826 | 60 | 295 | 4.0 | 12.0 | 0.00 | 0.00 | 0.00 | 30 | 1011.9 |
| 20260503225318 | 60 | 275 | 3.0 | 11.0 | 0.00 | 0.00 | 0.00 | 30 | 1011.8 |
| 20260503224829 | 61 | 285 | 5.0 | 14.0 | 0.00 | 0.00 | 0.00 | 30 | 1011.8 |
| 20260503224321 | 61 | 5 | 2.0 | 14.0 | 0.00 | 0.00 | 0.00 | 30 | 1011.8 |
| 20260503223833 | 61 | 313 | 4.0 | 16.0 | 0.00 | 0.00 | 0.00 | 29 | 1011.8 |
| 20260503223326 | 61 | 301 | 6.0 | 16.0 | 0.00 | 0.00 | 0.00 | 28 | 1011.8 |
| 20260503222818 | 61 | 294 | 4.0 | 16.0 | 0.00 | 0.00 | 0.00 | 28 | 1011.8 |
| 20260503222351 | 62 | 314 | 4.0 | 11.0 | 0.00 | 0.00 | 0.00 | 29 | 1011.7 |
| 20260503221825 | 61 | 288 | 5.0 | 11.0 | 0.00 | 0.00 | 0.00 | 29 | 1011.7 |
| 20260503221324 | 61 | 345 | 5.0 | 11.0 | 0.00 | 0.00 | 0.00 | 29 | 1011.6 |
| 20260503220815 | 61 | 307 | 5.0 | 19.0 | 0.00 | 0.00 | 0.00 | 30 | 1011.7 |
| 20260503220327 | 61 | 259 | 3.0 | 19.0 | 0.00 | 0.00 | 0.00 | 29 | 1011.8 |
| 20260503215839 | 61 | 271 | 7.0 | 18.0 | 0.00 | 0.00 | 0.00 | 28 | 1011.7 |
| 20260503215333 | 62 | 277 | 8.0 | 19.0 | 0.00 | 0.00 | 0.00 | 28 | 1011.7 |
| 20260503214845 | 62 | 302 | 9.0 | 19.0 | 0.00 | 0.00 | 0.00 | 28 | 1011.6 |
| 20260503214316 | 62 | 313 | 7.0 | 16.0 | 0.00 | 0.00 | 0.00 | 29 | 1011.6 |
| 20260503213827 | 62 | 306 | 6.0 | 12.0 | 0.00 | 0.00 | 0.00 | 29 | 1011.6 |
| 20260503213339 | 62 | 327 | 5.0 | 14.0 | 0.00 | 0.00 | 0.00 | 29 | 1011.7 |
| 20260503212829 | 62 | 5 | 7.0 | 14.0 | 0.00 | 0.00 | 0.00 | 29 | 1011.5 |
| 20260503212325 | 62 | 254 | 5.0 | 13.0 | 0.00 | 0.00 | 0.00 | 29 | 1011.5 |
| 20260503211817 | 62 | 305 | 7.0 | 13.0 | 0.00 | 0.00 | 0.00 | 29 | 1011.6 |
| 20260503210826 | 63 | 325 | 7.0 | 18.0 | 0.00 | 0.00 | 0.00 | 30 | 1011.6 |
| 20260503210318 | 62 | 347 | 4.0 | 19.0 | 0.00 | 0.00 | 0.00 | 29 | 1011.4 |
| 20260503205830 | 63 | 310 | 6.0 | 18.0 | 0.00 | 0.00 | 0.00 | 29 | 1011.4 |
| 20260503205321 | 63 | 296 | 4.0 | 11.0 | 0.00 | 0.00 | 0.00 | 29 | 1011.4 |
| 20260503204834 | 62 | 355 | 5.0 | 16.0 | 0.00 | 0.00 | 0.00 | 29 | 1011.4 |
| 20260503204330 | 62 | 328 | 5.0 | 16.0 | 0.00 | 0.00 | 0.00 | 29 | 1011.5 |
| 20260503203820 | 62 | 323 | 7.0 | 15.0 | 0.00 | 0.00 | 0.00 | 29 | 1011.4 |
| 20260503203333 | 62 | 285 | 5.0 | 16.0 | 0.00 | 0.00 | 0.00 | 30 | 1011.4 |
| 20260503202823 | 62 | 348 | 6.0 | 16.0 | 0.00 | 0.00 | 0.00 | 29 | 1011.3 |
| 20260503202315 | 62 | 292 | 5.0 | 14.0 | 0.00 | 0.00 | 0.00 | 30 | 1011.4 |
| 20260503201826 | 62 | 253 | 2.0 | 17.0 | 0.00 | 0.00 | 0.00 | 30 | 1011.4 |
| 20260503201317 | 62 | 290 | 7.0 | 17.0 | 0.00 | 0.00 | 0.00 | 30 | 1011.6 |
| 20260503200851 | 62 | 288 | 5.0 | 17.0 | 0.00 | 0.00 | 0.00 | 31 | 1011.6 |
| 20260503200322 | 62 | 263 | 6.0 | 18.0 | 0.00 | 0.00 | 0.00 | 30 | 1011.6 |
| 20260503195818 | 62 | 319 | 5.0 | 17.0 | 0.00 | 0.00 | 0.00 | 30 | 1011.6 |
| 20260503195329 | 63 | 348 | 4.0 | 17.0 | 0.00 | 0.00 | 0.00 | 31 | 1011.7 |
| 20260503194820 | 63 | 294 | 6.0 | 17.0 | 0.00 | 0.00 | 0.00 | 30 | 1011.7 |
| 20260503194332 | 63 | 58 | 5.0 | 17.0 | 0.00 | 0.00 | 0.00 | 33 | 1011.8 |
| 20260503193823 | 62 | 289 | 6.0 | 17.0 | 0.00 | 0.00 | 0.00 | 31 | 1011.8 |
| 20260503193315 | 62 | 303 | 4.0 | 15.0 | 0.00 | 0.00 | 0.00 | 31 | 1011.8 |
| 20260503192826 | 61 | 257 | 7.0 | 15.0 | 0.00 | 0.00 | 0.00 | 33 | 1011.9 |
| 20260503192317 | 61 | 284 | 5.0 | 21.0 | 0.00 | 0.00 | 0.00 | 32 | 1012.0 |
| 20260503191849 | 61 | 327 | 9.0 | 21.0 | 0.00 | 0.00 | 0.00 | 32 | 1012.0 |
| 20260503191324 | 62 | 269 | 10.0 | 20.0 | 0.00 | 0.00 | 0.00 | 31 | 1012.0 |
| 20260503190819 | 63 | 305 | 4.0 | 14.0 | 0.00 | 0.00 | 0.00 | 33 | 1012.1 |
| 20260503190330 | 61 | 281 | 5.0 | 18.0 | 0.00 | 0.00 | 0.00 | 33 | 1012.1 |
| 20260503185821 | 62 | 290 | 6.0 | 17.0 | 0.00 | 0.00 | 0.00 | 31 | 1012.1 |
| 20260503185333 | 62 | 287 | 6.0 | 17.0 | 0.00 | 0.00 | 0.00 | 32 | 1012.2 |
| 20260503184825 | 62 | 303 | 5.0 | 13.0 | 0.00 | 0.00 | 0.00 | 32 | 1012.2 |
| 20260503184316 | 61 | 298 | 3.0 | 11.0 | 0.00 | 0.00 | 0.00 | 34 | 1012.2 |
| 20260503183827 | 60 | 339 | 4.0 | 14.0 | 0.00 | 0.00 | 0.00 | 33 | 1012.2 |
| 20260503183322 | 61 | 296 | 7.0 | 14.0 | 0.00 | 0.00 | 0.00 | 32 | 1012.4 |
| 20260503182834 | 60 | 291 | 4.0 | 13.0 | 0.00 | 0.00 | 0.00 | 35 | 1012.3 |
| 20260503182326 | 60 | 299 | 5.0 | 13.0 | 0.00 | 0.00 | 0.00 | 34 | 1012.4 |
| 20260503181816 | 59 | 70 | 5.0 | 15.0 | 0.00 | 0.00 | 0.00 | 36 | 1012.3 |
| 20260503181328 | 58 | 296 | 3.0 | 15.0 | 0.00 | 0.00 | 0.00 | 35 | 1012.4 |
| 20260503180312 | 59 | 327 | 5.0 | 14.0 | 0.00 | 0.00 | 0.00 | 34 | 1012.4 |
| 20260503175826 | 60 | 304 | 4.0 | 15.0 | 0.00 | 0.00 | 0.00 | 35 | 1012.3 |
| 20260503175322 | 59 | 315 | 4.0 | 19.0 | 0.00 | 0.00 | 0.00 | 34 | 1012.4 |
| 20260503174812 | 58 | 252 | 7.0 | 19.0 | 0.00 | 0.00 | 0.00 | 35 | 1012.5 |
| 20260503174327 | 58 | 302 | 4.0 | 16.0 | 0.00 | 0.00 | 0.00 | 36 | 1012.5 |
| 20260503173819 | 58 | 344 | 5.0 | 18.0 | 0.00 | 0.00 | 0.00 | 36 | 1012.6 |
| 20260503173331 | 58 | 40 | 4.0 | 15.0 | 0.00 | 0.00 | 0.00 | 36 | 1012.5 |
| 20260503172845 | 58 | 308 | 6.0 | 18.0 | 0.00 | 0.00 | 0.00 | 34 | 1012.5 |
| 20260503172314 | 59 | 343 | 8.0 | 18.0 | 0.00 | 0.00 | 0.00 | 34 | 1012.5 |
| 20260503171826 | 59 | 351 | 7.0 | 17.0 | 0.00 | 0.00 | 0.00 | 34 | 1012.4 |
| 20260503171321 | 58 | 350 | 7.0 | 17.0 | 0.00 | 0.00 | 0.00 | 36 | 1012.4 |
| 20260503170833 | 57 | 312 | 3.0 | 16.0 | 0.00 | 0.00 | 0.00 | 40 | 1012.5 |
| 20260503170345 | 57 | 269 | 7.0 | 16.0 | 0.00 | 0.00 | 0.00 | 37 | 1012.4 |
| 20260503150821 | 56 | 349 | 8.0 | 21.0 | 0.00 | 0.00 | 0.00 | 39 | 1012.9 |
| 20260503150315 | 56 | 317 | 8.0 | 21.0 | 0.00 | 0.00 | 0.00 | 40 | 1012.9 |